This is the latest recevied weather packets stored in our database for station/object N4DBJ. If no packets are shown the sender has not sent any weather packets the latest 10 day(s).
| Time | Temp. | Humidity | Pressure | Rain* | Wind** | Luminosity | Snow |
|---|---|---|---|---|---|---|---|
| 1778010351 | 22.78° C | 55% | 1006.6 hPa | 0 mm | - | 262 W/m² | - |
| 1778010046 | 23.33° C | 53% | 1006.6 hPa | 0 mm | - | 376 W/m² | - |
| 1778009744 | 23.33° C | 54% | 1006.9 hPa | 0 mm | - | 340 W/m² | - |
| 1778009441 | 23.33° C | 54% | 1007 hPa | 0 mm | - | 830 W/m² | - |
| 1778009139 | 23.33° C | 54% | 1007.2 hPa | 0 mm | - | 515 W/m² | - |
| 1778008837 | 23.89° C | 56% | 1007 hPa | 0 mm | - | 620 W/m² | - |
| 1778008535 | 23.33° C | 53% | 1007 hPa | 0 mm | - | 730 W/m² | - |
| 1778008232 | 23.89° C | 57% | 1007.4 hPa | 0 mm | - | 714 W/m² | - |
| 1778007927 | 23.89° C | 55% | 1007.4 hPa | 0 mm | - | 789 W/m² | - |
| 1778007623 | 23.33° C | 55% | 1007.5 hPa | 0 mm | - | 698 W/m² | - |
| 1778007320 | 22.78° C | 55% | 1007.6 hPa | 0 mm | - | 536 W/m² | - |
| 1778007016 | 21.67° C | 58% | 1007.7 hPa | 0 mm | - | 741 W/m² | - |
| 1778006713 | 21.67° C | 58% | 1007.8 hPa | 0 mm | - | 343 W/m² | - |
| 1778006410 | 21.11° C | 57% | 1008 hPa | 0 mm | - | 188 W/m² | - |
| 1778006107 | 21.11° C | 60% | 1007.6 hPa | 0 mm | - | 232 W/m² | - |
| 1778005804 | 21.67° C | 58% | 1007.3 hPa | 0 mm | - | 241 W/m² | - |
| 1778005501 | 21.67° C | 61% | 1007.4 hPa | 0 mm | - | 206 W/m² | - |
| 1778005196 | 21.67° C | 60% | 1007.5 hPa | 0 mm | - | 212 W/m² | - |
| 1778004894 | 21.11° C | 61% | 1007.6 hPa | 0 mm | - | 320 W/m² | - |
| 1778004591 | 21.11° C | 68% | 1007.6 hPa | 0 mm | - | 267 W/m² | - |
| 1778004287 | 21.11° C | 63% | 1007.5 hPa | 0 mm | - | 176 W/m² | - |
| 1778003984 | 21.11° C | 65% | 1007.8 hPa | 0 mm | - | 198 W/m² | - |
| 1778003680 | 21.11° C | 66% | 1007.5 hPa | 0 mm | - | 293 W/m² | - |
| 1778003377 | 20.56° C | 71% | 1007.4 hPa | 0 mm | - | 270 W/m² | - |
| 1778003074 | 20.56° C | 70% | 1007.6 hPa | 0 mm | - | 233 W/m² | - |
* Rain latest hour (hover to see other rain measurements)
** Current wind speed in m/s (hover to see current wind gust speed)